レオナード彗星

P/2017 Y3 ( Leonard )

English version
Home page
Updated on February 13, 2018

---------------------------------------------------------------------

・ プロフィール

発見日 2017年12月26日
発見光度 19.8等
発見者 G. J. Leonard (Mount Lemmon)

・ 写真集

・ 軌道要素

Epoch 2018 Feb. 11.0 TT = JDT 2458160.5
T 2018 Feb. 11.24875 TT                                 MPCW
q   1.2754963            (2000.0)            P               Q
n   0.03166904     Peri.   67.51838     -0.70391516     +0.68039017
a   9.8941725      Node   153.87690     -0.69035767     -0.72289043
e   0.8710861      Incl.   27.58589     +0.16706206     -0.12041032
P  31.12
From 63 observations 2017 Dec. 26-2018 Jan. 20, mean residual 0".5.

・ 光度変化

        m1 = 16.5 + 5 logΔ + 10.0 log r

---------------------------------------------------------------------

軌道要素はM.P.E.C. 2018-B155に掲載されたものです。
光度グラフはComet for Windowsで作成したものです。

---------------------------------------------------------------------

Copyright(C) Seiichi Yoshida (comet@aerith.net). All rights reserved.